{"data":{"norad_id":39634,"intl_designator":"2014-016A","name":"SENTINEL-1A","alt_names":[],"object_type":"PAYLOAD","status":"ACTIVE","operator":null,"country":"ESA","launch_date":"2014-04-03","launch_site_code":"FRGUI","launch_vehicle":null,"mission":null,"orbit_class":"UNKNOWN","rcs_meters":4.9676,"size_class":null,"mass_kg":null,"dimensions":null,"purposes":["earth_obs"],"wikipedia_slug":null,"has_3d_model":false,"image_url":null,"decayed_at":null,"tle_current":{"epoch":"2026-05-25T04:34:07.591296Z","epoch_age_seconds":68724,"freshness":"FRESH","line1":"1 39634U 14016A   26145.19036564  .00000227  00000+0  57952-4 0  9991","line2":"2 39634  98.1788 153.0594 0001416  84.4784 275.6577 14.59199996646661","mean_motion":14.59199996,"eccentricity":0.0001416,"inclination_deg":98.1788,"raan_deg":153.0594,"arg_perigee_deg":84.4784,"mean_anomaly_deg":275.6577,"bstar":5.7952e-5,"rev_number":64666,"period_min":98.684210796832,"perigee_km":694.75664536469,"apogee_km":696.75997251618,"semimajor_km":7073.8953089404,"source":"CELESTRAK","updated_at":"2026-05-25T13:38:12.783732Z"}}}